Вернуться в каталог

ATLAS 5 CENTAUR DEB

LostHEO
NORAD 43949·DEBRIS·🇺🇸 United States

Запущен Sep 17, 2014 с Cape Canaveral Space Force Station

Loading…

Ближайшие Пролёты (ближайшие 24 часа)

TLE

УстаревшееSource: Space-Track

Эпоха: Sep 13, 2025, 09:25 UTC

1 43949U 14055C   25256.39304734 -.00000155  00000-0  00000-0 0  9999
2 43949  20.9210 115.8702 4982413 215.6192  97.7435  1.95774341 28305

Отслеживайте ATLAS 5 CENTAUR DEB в реальном времени с AllMySat

Download on the App Store